Flag for Australia Weather past 2 weeks in Rockhampton, Queensland, Australia

Now
88 °F

Passing clouds.


Feels Like: 91 °F
Forecast: 78 / 88 °F
Wind: 6 mph from Northeast

Location: Rockhampton Airport

Current Time: Dec 29, 2014 at 11:09:31 AM

Latest Report: Dec 29, 2014 at 10:30 AM


Visibility: N/A

Pressure: 29.83 "Hg

Humidity: 52%

Dew point: 68 °F

Location of RockhamptonLocation

Historic Weather in Rockhampton — Graph

°F

Rockhampton temperature yesterday

Maximum temperature yesterday: 88 °F (at 4:30 PM)
Minimum temperature yesterday: 75 °F (at 12:00 AM)
Average temperature yesterday: 79 °F

Past Weeks' High & Low Weather Summary

 TemperatureHumidityPressure
High97 °F (Dec 17, 2:00 PM)100% (Dec 15, 3:30 AM)29.98 "Hg (Dec 15, 3:30 AM)
Low68 °F (Dec 23, 3:30 AM)26% (Dec 20, 1:00 PM)29.68 "Hg (Dec 16, 3:30 PM)
Average80 °F68%29.85 "Hg
* Reported Dec 14 10:00 AM — Dec 29 10:00 AM, Rockhampton, Weather by CustomWeather, © 2014

Note: Actual official high and low records may vary slightly from our data, if they occured in-between our weather recording intervals... More about our weather records

Advertising

Rockhampton weather history for previous 24 hours

 ConditionsComfort  
Time TempWeatherWind HumidityBarometerVisibility
10:00 AM
Dec 29
86 °FPassing clouds.7 mph55%29.83 "HgN/A
9:30 AM86 °FPassing clouds.7 mph55%29.83 "HgN/A
9:00 AM86 °FPassing clouds.8 mph55%29.83 "HgN/A
8:30 AM84 °FPassing clouds.7 mph62%29.83 "HgN/A
8:00 AM81 °FScattered clouds.8 mph74%29.83 "HgN/A
7:30 AM81 °FScattered clouds.6 mph79%29.83 "HgN/A
7:00 AM79 °FScattered clouds.No wind84%29.83 "HgN/A
6:30 AM77 °FBroken clouds.No wind89%29.83 "HgN/A
6:00 AM77 °FBroken clouds.5 mph89%29.83 "HgN/A
5:30 AM75 °FScattered clouds.3 mph94%29.80 "HgN/A
5:00 AM75 °FSunny.1 mph94%29.80 "HgN/A
4:30 AM77 °FSunny.No wind89%29.80 "HgN/A
4:00 AM77 °FPassing clouds.No wind89%29.80 "HgN/A
3:30 AM77 °FPassing clouds.No wind89%29.77 "HgN/A
3:00 AM77 °FPassing clouds.No wind89%29.80 "HgN/A
2:30 AM77 °FPassing clouds.No wind89%29.80 "HgN/A
2:00 AM77 °FPassing clouds.5 mph89%29.80 "HgN/A
1:30 AM75 °FOvercast.No wind94%29.80 "HgN/A
1:00 AM75 °FClear.No wind89%29.80 "HgN/A
12:00 AM77 °FClear.3 mph83%29.83 "HgN/A
11:00 PM
Dec 28
77 °FClear.3 mph83%29.83 "HgN/A
10:30 PM79 °FPassing clouds.No wind79%29.83 "HgN/A
10:00 PM79 °FClear.3 mph74%29.83 "HgN/A
9:30 PM79 °FPassing clouds.3 mph74%29.83 "HgN/A
9:00 PM79 °FPassing clouds.3 mph74%29.83 "HgN/A
8:30 PM79 °FClear.8 mph74%29.83 "HgN/A
8:00 PM79 °FPassing clouds.6 mph74%29.83 "HgN/A
7:00 PM81 °FClear.8 mph70%29.80 "HgN/A
6:00 PM84 °FClear.10 mph58%29.80 "HgN/A
5:30 PM84 °FSunny.9 mph62%29.77 "HgN/A
5:00 PM86 °FScattered clouds.10 mph59%29.77 "HgN/A
4:30 PM88 °FPartly sunny.10 mph55%29.77 "HgN/A
4:00 PM86 °FPartly sunny.9 mph59%29.77 "HgN/A
3:30 PM86 °FPartly sunny.7 mph55%29.77 "HgN/A
3:00 PM86 °FPartly sunny.7 mph55%29.80 "HgN/A
2:30 PM86 °FPartly sunny.8 mph55%29.80 "HgN/A
2:00 PM84 °FPartly sunny.8 mph62%29.80 "HgN/A
1:30 PM82 °FPartly sunny.9 mph74%29.83 "HgN/A
1:00 PM79 °FScattered showers. Overcast.12 mph84%29.83 "HgN/A
12:51 PM77 °FScattered showers. Partly sunny.10 mph89%29.83 "HgN/A
12:30 PM77 °FLight rain. Partly sunny.14 mph89%29.86 "Hg4 mi
12:00 PM81 °FSprinkles. Partly sunny.9 mph74%29.86 "HgN/A
11:30 AM77 °FSprinkles. Partly sunny.6 mph89%29.86 "HgN/A
11:00 AM77 °FMixture of precip. Partly sunny.6 mph89%29.89 "HgN/A
Weather by CustomWeather, © 2014

See weather overviewHow to use our weather pages